Regional Weather Roundup
Issued by NWS

Home | Current Version | Previous Version | Text Only | Print | Product List | Glossary On
Versions: 1 2 3 4 5 6 7 8 9 10 11 12 13 14 15 16 17 18 19 20 21 22 23 24 25 26 27 28 29 30 31 32 33 34 35 36 37 38 39 40 41 42 43 44 45 46
000
ASUS45 KBOU 260410
RWRCO

WEATHER ROUNDUP FOR COLORADO
NATIONAL WEATHER SERVICE DENVER/BOULDER CO
1000 PM MDT WED APR 25 2018

NOTE: "FAIR" INDICATES FEW OR NO CLOUDS BELOW 12000 FEET WITH NO
SIGNIFICANT WEATHER AND/OR OBSTRUCTIONS TO VISIBILITY.

COZ001>005-013-030-031-260500-
...NORTHWEST COLORADO...

CITY           SKY/WX    TMP DP  RH WIND       PRES   REMARKS
CRAIG          FAIR      43  24  47 CALM      30.11R
HAYDEN         FAIR      44  24  45 E7        30.13S
MEEKER         FAIR      42  28  57 CALM      30.14R
RANGELY        FAIR      47  25  42 CALM      30.09R
RABBIT EARS PA FAIR      32  18  55 W12G20    30.26S WCI  23
STEAMBOAT SPGS FAIR      48  19  31 CALM      30.13F
WALDEN         FAIR      41  10  28 SE6       30.18S
$$

COZ006>008-011-260500-
...WEST CENTRAL VALLEYS...

CITY           SKY/WX    TMP DP  RH WIND       PRES   REMARKS
GRAND JUNCTION FAIR      54  10  17 VRB3      30.08S
MONTROSE       FAIR      51  16  24 SE10      30.16R
EAGLE          FAIR      54   7  15 W6        30.17R
RIFLE          FAIR      51  14  22 S8        30.10R
DELTA          FAIR      56  12  17 CALM      30.10R
NUCLA          FAIR      52   1  12 E9        30.19R
$$

COZ017>023-064>068-260500-
...SOUTHWEST COLORADO...

CITY           SKY/WX    TMP DP  RH WIND       PRES   REMARKS
DURANGO        FAIR      54  -3   9 W7        30.15R
CORTEZ         FAIR      45   7  21 CALM      30.16R
PAGOSA SPRINGS FAIR      45   5  19 CALM      30.20S
TELLURIDE      FAIR      44   6  21 SE7       30.31S
WOLF CREEK PAS FAIR      34   3  27 S14G22    30.42S WCI  24
$$

COZ009-010-012-014-032>034-037-058>063-260500-
...CENTRAL COLORADO...

CITY           SKY/WX    TMP DP  RH WIND       PRES   REMARKS
ASPEN          FAIR      41  18  39 S9        30.20R
BUENA VISTA    FAIR      41  15  35 NW6       30.17S
COPPER MTN     NOT AVBL
BERTHOUD PASS  FAIR      28  19  69 NW22      30.33F WCI  15
COTTONWOOD PAS FAIR      52 -15   6 W14G32    30.25F
GUNNISON       FAIR      42  15  33 CALM      30.20R
GRANBY         FAIR      42  20  41 SE6       30.18S
KREMMLING      FAIR      54  19  26 CALM      30.16S
LEADVILLE      FAIR      36  12  37 VRB5      30.27R
MONARCH PASS   FAIR      34   0  23 W29       30.45F WCI  20
SALIDA         FAIR      51  18  26 S8        30.23S
SUNLIGHT       FAIR      32   9  37 SW14G25   30.35S WCI  22
WILKERSON PASS FAIR      37   0  20 W5        30.33S
$$

COZ069>075-260500-
...SAN LUIS VALLEY/SANGRE DE CRISTO MOUNTAINS...

CITY           SKY/WX    TMP DP  RH WIND       PRES   REMARKS
ALAMOSA        FAIR      47  13  25 SW10      30.13R
DEL NORTE      FAIR      52   6  15 NW13      30.17S
LA VETA PASS   FAIR      41   9  26 S8G23     30.37F
SAGUACHE       NOT AVBL
$$

COZ035-036-038>040-260500-
...NORTHERN COLORADO FRONT RANGE...

CITY           SKY/WX    TMP DP  RH WIND       PRES   REMARKS
DENVER INTL AP MOCLDY    52  30  43 S14       30.01F
AURORA         MOCLDY    54  26  34 S17       30.03F
FRONT RANGE AP FAIR      51  32  48 S8        30.03F
ERIE MUNI ARPT FAIR      48  33  55 CALM      30.07S
BOULDER MUN AP FAIR      54  27  35 SW6       30.01F
CENTENNIAL     MOCLDY    53  27  36 S15       30.03F
BROOMFIELD     PTCLDY    55  27  33 W9        30.04S
FORT COLLINS   FAIR      54  26  34 SW3       30.02S
LONGMONT       FAIR      49  34  56 NW5       30.03F
$$

COZ041-046-047-076>085-087-088-260500-
...PIKES PEAK/PALMER DIVIDE AND SOUTHERN FOOTHILLS...

CITY           SKY/WX    TMP DP  RH WIND       PRES   REMARKS
COLO. SPRINGS  FAIR      46  26  45 S14       30.13R
A. F. ACADEMY  FAIR      47  23  39 SE7       30.13R
SCHRIEVER AFB  NOT AVBL
CHEYENNE MTN   FAIR      48  21  34 NW7       30.09S
ELLICOTT         N/A    N/A N/A N/A S8        30.12S
FALCON         FAIR      42  23  47 S5        30.16S
FORT CARSON    FAIR      49  25  38 S8        30.11R
LIMON          FAIR      40  27  59 S5        30.08S
MONUMENT HILL  FAIR      41  25  52 S13       30.14S
CANON CITY     FAIR      50  32  50 N12       30.10S
WALSENBURG     NOT AVBL
TRINIDAD       FAIR      46  21  37 S7        30.11S
$$

COZ042>045-048>051-090-091-260500-
...NORTHEAST COLORADO...

CITY           SKY/WX    TMP DP  RH WIND       PRES   REMARKS
GREELEY ARPT   FAIR      48  27  44 CALM      30.01S
AKRON          FAIR      47  32  56 S13       30.02S
BURLINGTON     FAIR      40  32  73 S12       30.05F
WRAY           FAIR      46  32  57 S10       30.01F
YUMA           FAIR      41  32  70 S10       30.00F
STERLING       NOT AVBL
HOLYOKE        FAIR      46  34  61 S10       30.00F
FORT MORGAN    FAIR      48  20  32 S3        30.01S
$$

COZ086-089-092>099-260500-
...SOUTHEAST COLORADO...

CITY           SKY/WX    TMP DP  RH WIND       PRES   REMARKS
PUEBLO         FAIR      48  31  51 E6        30.08R
LA JUNTA       FAIR      51  34  52 S7        30.07S
LAMAR          FAIR      48  33  56 MISG      30.05S
SPRINGFIELD      N/A     37  28  70 SW6       30.10F
$$




USA.gov is the U.S. government's official web portal to all federal, state and local government web resources and services.